| time (UTC) | temp F | wind direction | speed MPH | gust MPH | rain 1hr in | rain 24hr in | rain mn in | humidity % | barometer mb |
| 20260902155043 | 90 | 261 | 4.0 | 8.0 | 0.00 | 0.00 | 0.00 | 57 | 1019.4 |
| 20260902154605 | 90 | 187 | 2.0 | 9.0 | 0.00 | 0.00 | 0.00 | 57 | 1019.4 |
| 20260902154043 | 90 | 240 | 3.0 | 10.0 | 0.00 | 0.00 | 0.00 | 57 | 1019.4 |
| 20260902153545 | 90 | 196 | 1.0 | 10.0 | 0.00 | 0.00 | 0.00 | 58 | 1019.3 |
| 20260902153103 | 90 | 257 | 2.0 | 6.0 | 0.00 | 0.00 | 0.00 | 58 | 1019.3 |
| 20260902152542 | 89 | 148 | 1.0 | 6.0 | 0.00 | 0.00 | 0.00 | 61 | 1019.2 |
| 20260902152044 | 88 | 116 | 2.0 | 11.0 | 0.00 | 0.00 | 0.00 | 61 | 1019.2 |
| 20260902151602 | 88 | 234 | 2.0 | 11.0 | 0.00 | 0.00 | 0.00 | 60 | 1019.2 |
| 20260902151043 | 88 | 236 | 5.0 | 11.0 | 0.00 | 0.00 | 0.00 | 60 | 1019.2 |
| 20260902150542 | 89 | 176 | 3.0 | 7.0 | 0.00 | 0.00 | 0.00 | 59 | 1019.1 |
| 20260902150106 | 88 | 232 | 1.0 | 8.0 | 0.00 | 0.00 | 0.00 | 61 | 1019.2 |
| 20260902145543 | 88 | 236 | 1.0 | 8.0 | 0.00 | 0.00 | 0.00 | 60 | 1019.3 |
| 20260902145046 | 88 | 168 | 1.0 | 5.0 | 0.00 | 0.00 | 0.00 | 62 | 1019.2 |
| 20260902144603 | 88 | 223 | 1.0 | 5.0 | 0.00 | 0.00 | 0.00 | 62 | 1019.2 |
| 20260902144044 | 87 | 167 | 1.0 | 4.0 | 0.00 | 0.00 | 0.00 | 63 | 1019.2 |
| 20260902143543 | 87 | 219 | 1.0 | 6.0 | 0.00 | 0.00 | 0.00 | 63 | 1019.2 |
| 20260902143108 | 86 | 136 | 1.0 | 7.0 | 0.00 | 0.00 | 0.00 | 65 | 1019.2 |
| 20260902142544 | 86 | 130 | 2.0 | 7.0 | 0.00 | 0.00 | 0.00 | 66 | 1019.1 |
| 20260902142042 | 85 | 154 | 2.0 | 7.0 | 0.00 | 0.00 | 0.00 | 65 | 1019.1 |
| 20260902141607 | 85 | 176 | 1.0 | 5.0 | 0.00 | 0.00 | 0.00 | 66 | 1019.1 |
| 20260902141042 | 84 | 175 | 1.0 | 5.0 | 0.00 | 0.00 | 0.00 | 67 | 1019.2 |
| 20260902140542 | 83 | 139 | 1.0 | 5.0 | 0.00 | 0.00 | 0.00 | 69 | 1019.3 |
| 20260902140103 | 82 | 198 | 1.0 | 5.0 | 0.00 | 0.00 | 0.00 | 71 | 1019.3 |
| 20260902135543 | 81 | 149 | 1.0 | 5.0 | 0.00 | 0.00 | 0.00 | 71 | 1019.3 |
| 20260902135043 | 81 | 196 | 1.0 | 5.0 | 0.00 | 0.00 | 0.00 | 72 | 1019.3 |
| 20260902134607 | 81 | 135 | 0.0 | 4.0 | 0.00 | 0.00 | 0.00 | 72 | 1019.4 |
| 20260902134042 | 81 | 218 | 0.0 | 4.0 | 0.00 | 0.00 | 0.00 | 72 | 1019.4 |
| 20260902133543 | 80 | 163 | 0.0 | 4.0 | 0.00 | 0.00 | 0.00 | 72 | 1019.4 |
| 20260902133057 | 80 | 162 | 0.0 | 5.0 | 0.00 | 0.00 | 0.00 | 72 | 1019.4 |
| 20260902132542 | 80 | 186 | 1.0 | 5.0 | 0.00 | 0.00 | 0.00 | 73 | 1019.4 |
| 20260902132042 | 80 | 239 | 1.0 | 5.0 | 0.00 | 0.00 | 0.00 | 74 | 1019.3 |
| 20260902131607 | 79 | 188 | 0.0 | 5.0 | 0.00 | 0.00 | 0.00 | 74 | 1019.3 |
| 20260902131043 | 79 | 154 | 1.0 | 4.0 | 0.00 | 0.00 | 0.00 | 74 | 1019.3 |
| 20260902130545 | 79 | 146 | 0.0 | 4.0 | 0.00 | 0.00 | 0.00 | 74 | 1019.3 |
| 20260902130103 | 78 | 142 | 1.0 | 4.0 | 0.00 | 0.00 | 0.00 | 74 | 1019.3 |
| 20260902125542 | 78 | 195 | 0.0 | 4.0 | 0.00 | 0.00 | 0.00 | 75 | 1019.4 |
| 20260902125044 | 78 | 134 | 0.0 | 3.0 | 0.00 | 0.00 | 0.00 | 75 | 1019.3 |
| 20260902124608 | 78 | 193 | 0.0 | 3.0 | 0.00 | 0.00 | 0.00 | 75 | 1019.3 |
| 20260902124043 | 77 | 163 | 0.0 | 3.0 | 0.00 | 0.00 | 0.00 | 76 | 1019.3 |
| 20260902123543 | 77 | 143 | 0.0 | 1.0 | 0.00 | 0.00 | 0.00 | 76 | 1019.4 |
| 20260902123103 | 77 | 0 | 0.0 | 1.0 | 0.00 | 0.00 | 0.00 | 76 | 1019.3 |
| 20260902122546 | 76 | 143 | 0.0 | 1.0 | 0.00 | 0.00 | 0.00 | 76 | 1019.3 |
| 20260902122042 | 76 | 0 | 0.0 | 3.0 | 0.00 | 0.00 | 0.00 | 76 | 1019.2 |
| 20260902121611 | 76 | 134 | 0.0 | 3.0 | 0.00 | 0.00 | 0.00 | 76 | 1019.1 |
| 20260902121042 | 76 | 113 | 1.0 | 3.0 | 0.00 | 0.00 | 0.00 | 76 | 1019.0 |
| 20260902120542 | 76 | 139 | 0.0 | 3.0 | 0.00 | 0.00 | 0.00 | 76 | 1018.9 |
| 20260902120058 | 76 | 126 | 1.0 | 3.0 | 0.00 | 0.00 | 0.00 | 77 | 1018.9 |
| 20260902115543 | 75 | 0 | 0.0 | 2.0 | 0.00 | 0.00 | 0.00 | 77 | 1018.8 |
| 20260902115046 | 75 | 130 | 1.0 | 2.0 | 0.00 | 0.00 | 0.00 | 77 | 1018.8 |
| 20260902114601 | 75 | 166 | 0.0 | 3.0 | 0.00 | 0.00 | 0.00 | 77 | 1018.7 |
| 20260902114045 | 75 | 131 | 0.0 | 3.0 | 0.00 | 0.00 | 0.00 | 77 | 1018.7 |
| 20260902113545 | 75 | 147 | 0.0 | 3.0 | 0.00 | 0.00 | 0.00 | 77 | 1018.5 |
| 20260902113110 | 75 | 146 | 0.0 | 2.0 | 0.00 | 0.00 | 0.00 | 77 | 1018.6 |
| 20260902112544 | 75 | 0 | 0.0 | 2.0 | 0.00 | 0.00 | 0.00 | 77 | 1018.6 |
| 20260902112043 | 75 | 142 | 0.0 | 2.0 | 0.00 | 0.00 | 0.00 | 76 | 1018.5 |
| 20260902111605 | 75 | 0 | 0.0 | 2.0 | 0.00 | 0.00 | 0.00 | 76 | 1018.5 |
| 20260902111042 | 75 | 138 | 0.0 | 2.0 | 0.00 | 0.00 | 0.00 | 76 | 1018.5 |
| 20260902110544 | 75 | 0 | 0.0 | 1.0 | 0.00 | 0.00 | 0.00 | 76 | 1018.5 |
| 20260902110107 | 75 | 146 | 0.0 | 1.0 | 0.00 | 0.00 | 0.00 | 76 | 1018.5 |
| 20260902105543 | 75 | 137 | 0.0 | 1.0 | 0.00 | 0.00 | 0.00 | 75 | 1018.5 |
| 20260902105042 | 76 | 0 | 0.0 | 3.0 | 0.00 | 0.00 | 0.00 | 75 | 1018.4 |
| 20260902104602 | 76 | 136 | 0.0 | 3.0 | 0.00 | 0.00 | 0.00 | 75 | 1018.4 |
| 20260902104043 | 76 | 0 | 0.0 | 3.0 | 0.00 | 0.00 | 0.00 | 75 | 1018.4 |
| 20260902103545 | 76 | 0 | 0.0 | 4.0 | 0.00 | 0.00 | 0.00 | 75 | 1018.4 |
| 20260902103059 | 76 | 146 | 1.0 | 4.0 | 0.00 | 0.00 | 0.00 | 75 | 1018.4 |
| 20260902102543 | 76 | 142 | 0.0 | 2.0 | 0.00 | 0.00 | 0.00 | 75 | 1018.3 |
| 20260902102044 | 76 | 139 | 0.0 | 2.0 | 0.00 | 0.00 | 0.00 | 74 | 1018.4 |
| 20260902101605 | 76 | 132 | 0.0 | 3.0 | 0.00 | 0.00 | 0.00 | 74 | 1018.2 |
| 20260902101042 | 76 | 145 | 0.0 | 3.0 | 0.00 | 0.00 | 0.00 | 74 | 1018.3 |
| 20260902100542 | 76 | 125 | 0.0 | 2.0 | 0.00 | 0.00 | 0.00 | 75 | 1018.3 |
| 20260902100110 | 76 | 0 | 0.0 | 2.0 | 0.00 | 0.00 | 0.00 | 74 | 1018.3 |
| 20260902095544 | 76 | 131 | 0.0 | 2.0 | 0.00 | 0.00 | 0.00 | 74 | 1018.3 |
| 20260902095043 | 76 | 0 | 0.0 | 2.0 | 0.00 | 0.00 | 0.00 | 74 | 1018.3 |
| 20260902094600 | 76 | 0 | 0.0 | 3.0 | 0.00 | 0.00 | 0.00 | 74 | 1018.2 |
| 20260902094043 | 76 | 146 | 0.0 | 3.0 | 0.00 | 0.00 | 0.00 | 74 | 1018.2 |
| 20260902093542 | 76 | 0 | 0.0 | 2.0 | 0.00 | 0.00 | 0.00 | 75 | 1018.2 |
| 20260902093058 | 76 | 0 | 0.0 | 1.0 | 0.00 | 0.00 | 0.00 | 75 | 1018.1 |
| 20260902092542 | 76 | 147 | 0.0 | 1.0 | 0.00 | 0.00 | 0.00 | 74 | 1018.1 |
| 20260902092042 | 76 | 148 | 0.0 | 2.0 | 0.00 | 0.00 | 0.00 | 74 | 1018.0 |
| 20260902091557 | 76 | 151 | 0.0 | 2.0 | 0.00 | 0.00 | 0.00 | 74 | 1017.9 |
| 20260902091043 | 76 | 147 | 0.0 | 2.0 | 0.00 | 0.00 | 0.00 | 74 | 1018.0 |
| 20260902090543 | 76 | 0 | 0.0 | 2.0 | 0.00 | 0.00 | 0.00 | 74 | 1018.0 |
| 20260902090059 | 76 | 159 | 0.0 | 2.0 | 0.00 | 0.00 | 0.00 | 74 | 1018.1 |
| 20260902085546 | 76 | 0 | 0.0 | 4.0 | 0.00 | 0.00 | 0.00 | 74 | 1018.1 |
| 20260902085042 | 76 | 0 | 0.0 | 4.0 | 0.00 | 0.00 | 0.00 | 74 | 1018.1 |
| 20260902084603 | 76 | 142 | 0.0 | 2.0 | 0.00 | 0.00 | 0.00 | 74 | 1018.1 |
| 20260902084043 | 76 | 200 | 0.0 | 4.0 | 0.00 | 0.00 | 0.00 | 73 | 1018.1 |
| 20260902083545 | 77 | 182 | 0.0 | 4.0 | 0.00 | 0.00 | 0.00 | 73 | 1018.1 |
| 20260902083105 | 76 | 144 | 0.0 | 2.0 | 0.00 | 0.00 | 0.00 | 74 | 1018.0 |
| 20260902082542 | 76 | 144 | 0.0 | 4.0 | 0.00 | 0.00 | 0.00 | 74 | 1018.1 |
| 20260902082043 | 77 | 193 | 0.0 | 4.0 | 0.00 | 0.00 | 0.00 | 74 | 1018.1 |
| 20260902081607 | 77 | 179 | 0.0 | 4.0 | 0.00 | 0.00 | 0.00 | 74 | 1018.1 |
| 20260902081045 | 76 | 144 | 1.0 | 3.0 | 0.00 | 0.00 | 0.00 | 74 | 1018.2 |
| 20260902080617 | 76 | 151 | 0.0 | 4.0 | 0.00 | 0.00 | 0.00 | 74 | 1018.2 |
| 20260902080543 | 76 | 151 | 0.0 | 4.0 | 0.00 | 0.00 | 0.00 | 74 | 1018.2 |
| 20260902080059 | 76 | 190 | 0.0 | 4.0 | 0.00 | 0.00 | 0.00 | 74 | 1018.2 |
| 20260902075542 | 76 | 153 | 0.0 | 3.0 | 0.00 | 0.00 | 0.00 | 75 | 1018.1 |
| 20260902075042 | 76 | 0 | 0.0 | 2.0 | 0.00 | 0.00 | 0.00 | 75 | 1018.1 |
| 20260902074600 | 76 | 157 | 0.0 | 2.0 | 0.00 | 0.00 | 0.00 | 75 | 1018.0 |
| 20260902074042 | 76 | 157 | 0.0 | 1.0 | 0.00 | 0.00 | 0.00 | 74 | 1018.0 |
| 20260902073543 | 76 | 159 | 0.0 | 2.0 | 0.00 | 0.00 | 0.00 | 74 | 1018.0 |
| 20260902073106 | 76 | 0 | 0.0 | 2.0 | 0.00 | 0.00 | 0.00 | 74 | 1018.1 |
| 20260902072542 | 76 | 158 | 0.0 | 3.0 | 0.00 | 0.00 | 0.00 | 74 | 1018.1 |
| 20260902072047 | 76 | 162 | 0.0 | 3.0 | 0.00 | 0.00 | 0.00 | 74 | 1018.0 |
| 20260902071600 | 76 | 159 | 0.0 | 3.0 | 0.00 | 0.00 | 0.00 | 74 | 1018.0 |
| 20260902071045 | 76 | 155 | 0.0 | 3.0 | 0.00 | 0.00 | 0.00 | 74 | 1018.0 |
| 20260902070543 | 76 | 167 | 0.0 | 3.0 | 0.00 | 0.00 | 0.00 | 74 | 1018.1 |
| 20260902070112 | 76 | 173 | 0.0 | 2.0 | 0.00 | 0.00 | 0.00 | 74 | 1018.0 |
| 20260902065544 | 76 | 139 | 0.0 | 3.0 | 0.00 | 0.00 | 0.00 | 74 | 1018.0 |
| 20260902065042 | 76 | 0 | 0.0 | 3.0 | 0.00 | 0.00 | 0.00 | 74 | 1018.1 |
| 20260902064611 | 76 | 0 | 0.0 | 1.0 | 0.00 | 0.00 | 0.00 | 73 | 1018.1 |
| 20260902064042 | 76 | 159 | 0.0 | 1.0 | 0.00 | 0.00 | 0.00 | 73 | 1018.1 |
| 20260902063545 | 76 | 160 | 0.0 | 1.0 | 0.00 | 0.00 | 0.00 | 73 | 1018.0 |
| 20260902063103 | 76 | 145 | 0.0 | 1.0 | 0.00 | 0.00 | 0.00 | 72 | 1018.1 |
| 20260902062547 | 76 | 153 | 0.0 | 1.0 | 0.00 | 0.00 | 0.00 | 72 | 1018.0 |
| 20260902062043 | 76 | 143 | 0.0 | 1.0 | 0.00 | 0.00 | 0.00 | 72 | 1018.0 |
| 20260902061045 | 76 | 0 | 0.0 | 1.0 | 0.00 | 0.00 | 0.00 | 71 | 1018.1 |
| 20260902060543 | 77 | 0 | 0.0 | 1.0 | 0.00 | 0.00 | 0.00 | 71 | 1018.0 |
| 20260902060114 | 77 | 0 | 0.0 | 1.0 | 0.00 | 0.00 | 0.00 | 71 | 1018.0 |
| 20260902055544 | 77 | 0 | 0.0 | 1.0 | 0.00 | 0.00 | 0.00 | 71 | 1018.0 |
| 20260902055043 | 77 | 0 | 0.0 | 5.0 | 0.00 | 0.00 | 0.00 | 70 | 1018.0 |
| 20260902054604 | 77 | 181 | 0.0 | 5.0 | 0.00 | 0.00 | 0.00 | 70 | 1018.0 |
| 20260902054042 | 77 | 136 | 0.0 | 2.0 | 0.00 | 0.00 | 0.00 | 70 | 1018.0 |
| 20260902053542 | 77 | 141 | 0.0 | 2.0 | 0.00 | 0.00 | 0.00 | 70 | 1017.9 |
| 20260902053124 | 77 | 145 | 0.0 | 2.0 | 0.00 | 0.00 | 0.00 | 70 | 1018.0 |
| 20260902052543 | 77 | 0 | 0.0 | 1.0 | 0.00 | 0.00 | 0.00 | 70 | 1017.9 |
| 20260902052043 | 77 | 0 | 0.0 | 2.0 | 0.00 | 0.00 | 0.00 | 70 | 1017.9 |
| 20260902051604 | 78 | 120 | 0.0 | 2.0 | 0.00 | 0.00 | 0.00 | 69 | 1017.8 |
| 20260902051044 | 78 | 161 | 0.0 | 5.0 | 0.00 | 0.00 | 0.00 | 69 | 1017.9 |
| 20260902050543 | 78 | 0 | 0.0 | 5.0 | 0.00 | 0.00 | 0.00 | 69 | 1018.0 |
| 20260902050121 | 78 | 116 | 0.0 | 4.0 | 0.00 | 0.00 | 0.00 | 69 | 1017.7 |
| 20260902045542 | 78 | 150 | 0.0 | 4.0 | 0.00 | 0.00 | 0.00 | 69 | 1017.8 |
| 20260902045045 | 78 | 153 | 0.0 | 1.0 | 0.00 | 0.00 | 0.00 | 69 | 1017.8 |
| 20260902044600 | 78 | 140 | 0.0 | 1.0 | 0.00 | 0.00 | 0.00 | 69 | 1017.7 |
| 20260902044042 | 78 | 157 | 0.0 | 1.0 | 0.00 | 0.00 | 0.00 | 68 | 1017.7 |
| 20260902043547 | 78 | 147 | 0.0 | 1.0 | 0.00 | 0.00 | 0.00 | 68 | 1017.7 |
| 20260902043103 | 78 | 0 | 0.0 | 1.0 | 0.00 | 0.00 | 0.00 | 68 | 1017.7 |
| 20260902042543 | 78 | 141 | 0.0 | 1.0 | 0.00 | 0.00 | 0.00 | 68 | 1017.6 |
| 20260902042043 | 78 | 0 | 0.0 | 2.0 | 0.00 | 0.00 | 0.00 | 68 | 1017.6 |
| 20260902041606 | 79 | 135 | 0.0 | 2.0 | 0.00 | 0.00 | 0.00 | 67 | 1017.6 |
| 20260902041047 | 79 | 135 | 0.0 | 1.0 | 0.00 | 0.00 | 0.00 | 67 | 1017.6 |
| 20260902040544 | 79 | 199 | 0.0 | 1.0 | 0.00 | 0.00 | 0.00 | 66 | 1017.5 |
| 20260902040100 | 79 | 150 | 0.0 | 1.0 | 0.00 | 0.00 | 0.00 | 65 | 1017.5 |
| 20260902035542 | 80 | 149 | 0.0 | 1.0 | 0.00 | 0.00 | 0.00 | 64 | 1017.5 |
| 20260902035042 | 80 | 146 | 0.0 | 2.0 | 0.00 | 0.00 | 0.00 | 64 | 1017.5 |
| 20260902034600 | 80 | 132 | 0.0 | 2.0 | 0.00 | 0.00 | 0.00 | 64 | 1017.5 |
| 20260902034042 | 80 | 136 | 0.0 | 1.0 | 0.00 | 0.00 | 0.00 | 64 | 1017.5 |
| 20260902033546 | 80 | 0 | 0.0 | 0.0 | 0.00 | 0.00 | 0.00 | 63 | 1017.5 |
| 20260902033114 | 80 | 0 | 0.0 | 0.0 | 0.00 | 0.00 | 0.00 | 63 | 1017.5 |
| 20260902032542 | 80 | 0 | 0.0 | 0.0 | 0.00 | 0.00 | 0.00 | 63 | 1017.5 |
| 20260902032043 | 80 | 0 | 0.0 | 0.0 | 0.00 | 0.00 | 0.00 | 63 | 1017.5 |
| 20260902031605 | 80 | 0 | 0.0 | 0.0 | 0.00 | 0.00 | 0.00 | 63 | 1017.4 |
| 20260902031043 | 80 | 0 | 0.0 | 0.0 | 0.00 | 0.00 | 0.00 | 63 | 1017.4 |
| 20260902030542 | 80 | 0 | 0.0 | 0.0 | 0.00 | 0.00 | 0.00 | 63 | 1017.3 |
| 20260902030055 | 80 | 0 | 0.0 | 0.0 | 0.00 | 0.00 | 0.00 | 64 | 1017.4 |
| 20260902025543 | 80 | 0 | 0.0 | 0.0 | 0.00 | 0.00 | 0.00 | 64 | 1017.4 |
| 20260902025047 | 80 | 0 | 0.0 | 0.0 | 0.00 | 0.00 | 0.00 | 64 | 1017.3 |
| 20260902024559 | 81 | 0 | 0.0 | 0.0 | 0.00 | 0.00 | 0.00 | 64 | 1017.2 |
| 20260902024042 | 81 | 0 | 0.0 | 0.0 | 0.00 | 0.00 | 0.00 | 64 | 1017.1 |
| 20260902023543 | 81 | 0 | 0.0 | 0.0 | 0.00 | 0.00 | 0.00 | 63 | 1017.0 |
| 20260902023102 | 82 | 0 | 0.0 | 0.0 | 0.00 | 0.00 | 0.00 | 62 | 1017.0 |
| 20260902022543 | 82 | 0 | 0.0 | 0.0 | 0.00 | 0.00 | 0.00 | 61 | 1017.0 |
| 20260902022042 | 82 | 0 | 0.0 | 0.0 | 0.00 | 0.00 | 0.00 | 61 | 1016.9 |
| 20260902021600 | 83 | 0 | 0.0 | 0.0 | 0.00 | 0.00 | 0.00 | 61 | 1016.9 |
| 20260902021043 | 83 | 0 | 0.0 | 1.0 | 0.00 | 0.00 | 0.00 | 60 | 1016.8 |
| 20260902020543 | 83 | 0 | 0.0 | 1.0 | 0.00 | 0.00 | 0.00 | 61 | 1016.6 |
| 20260902020058 | 83 | 127 | 0.0 | 1.0 | 0.00 | 0.00 | 0.00 | 60 | 1016.6 |
| 20260902015549 | 83 | 128 | 0.0 | 1.0 | 0.00 | 0.00 | 0.00 | 60 | 1016.4 |
| 20260902015042 | 83 | 0 | 0.0 | 0.0 | 0.00 | 0.00 | 0.00 | 60 | 1016.3 |
| 20260902014556 | 83 | 0 | 0.0 | 0.0 | 0.00 | 0.00 | 0.00 | 60 | 1016.2 |
| 20260902014042 | 83 | 0 | 0.0 | 1.0 | 0.00 | 0.00 | 0.00 | 60 | 1016.2 |
| 20260902013542 | 84 | 0 | 0.0 | 1.0 | 0.00 | 0.00 | 0.00 | 60 | 1016.2 |
| 20260902013104 | 84 | 132 | 0.0 | 1.0 | 0.00 | 0.00 | 0.00 | 60 | 1016.3 |
| 20260902012543 | 84 | 0 | 0.0 | 1.0 | 0.00 | 0.00 | 0.00 | 60 | 1016.2 |
| 20260902012043 | 84 | 140 | 0.0 | 1.0 | 0.00 | 0.00 | 0.00 | 60 | 1016.1 |
| 20260902011600 | 84 | 140 | 0.0 | 1.0 | 0.00 | 0.00 | 0.00 | 60 | 1016.1 |
| 20260902011043 | 84 | 0 | 0.0 | 1.0 | 0.00 | 0.00 | 0.00 | 60 | 1016.1 |
| 20260902010543 | 85 | 0 | 0.0 | 1.0 | 0.00 | 0.00 | 0.00 | 60 | 1016.2 |
| 20260902010109 | 85 | 0 | 0.0 | 1.0 | 0.00 | 0.00 | 0.00 | 60 | 1016.2 |
| 20260902005544 | 85 | 0 | 0.0 | 1.0 | 0.00 | 0.00 | 0.00 | 59 | 1016.2 |
| 20260902005043 | 85 | 0 | 0.0 | 0.0 | 0.00 | 0.00 | 0.00 | 58 | 1016.1 |
| 20260902004607 | 86 | 0 | 0.0 | 0.0 | 0.00 | 0.00 | 0.00 | 56 | 1016.2 |
| 20260902004044 | 86 | 0 | 0.0 | 0.0 | 0.00 | 0.00 | 0.00 | 56 | 1016.2 |
| 20260902003544 | 87 | 0 | 0.0 | 0.0 | 0.00 | 0.00 | 0.00 | 54 | 1016.3 |
| 20260902003105 | 88 | 0 | 0.0 | 0.0 | 0.00 | 0.00 | 0.00 | 53 | 1016.3 |
| 20260902002549 | 89 | 0 | 0.0 | 0.0 | 0.00 | 0.00 | 0.00 | 52 | 1016.3 |
| 20260902002042 | 90 | 0 | 0.0 | 0.0 | 0.00 | 0.00 | 0.00 | 52 | 1016.4 |
| 20260902001635 | 91 | 0 | 0.0 | 0.0 | 0.00 | 0.00 | 0.00 | 50 | 1016.4 |
| 20260902001042 | 91 | 0 | 0.0 | 0.0 | 0.00 | 0.00 | 0.00 | 49 | 1016.4 |
| 20260902000543 | 92 | 0 | 0.0 | 0.0 | 0.00 | 0.00 | 0.00 | 48 | 1016.4 |
| 20260902000103 | 92 | 0 | 0.0 | 1.0 | 0.00 | 0.00 | 0.00 | 48 | 1016.4 |
| 20260901235543 | 92 | 143 | 0.0 | 1.0 | 0.00 | 0.00 | 0.00 | 47 | 1016.5 |
| 20260901235045 | 93 | 0 | 0.0 | 1.0 | 0.00 | 0.00 | 0.00 | 47 | 1016.5 |
| 20260901234603 | 93 | 0 | 0.0 | 0.0 | 0.00 | 0.00 | 0.00 | 47 | 1016.6 |
| 20260901234044 | 93 | 0 | 0.0 | 3.0 | 0.00 | 0.00 | 0.00 | 47 | 1016.6 |
| 20260901233542 | 93 | 0 | 0.0 | 3.0 | 0.00 | 0.00 | 0.00 | 47 | 1016.7 |
| 20260901233107 | 93 | 156 | 0.0 | 3.0 | 0.00 | 0.00 | 0.00 | 46 | 1016.8 |
| 20260901232543 | 93 | 160 | 0.0 | 3.0 | 0.00 | 0.00 | 0.00 | 46 | 1016.8 |
| 20260901232043 | 93 | 0 | 0.0 | 3.0 | 0.00 | 0.00 | 0.00 | 46 | 1016.9 |
| 20260901231559 | 93 | 174 | 0.0 | 2.0 | 0.00 | 0.00 | 0.00 | 45 | 1016.9 |
| 20260901231042 | 93 | 200 | 0.0 | 2.0 | 0.00 | 0.00 | 0.00 | 45 | 1016.9 |
| 20260901230543 | 93 | 151 | 1.0 | 2.0 | 0.00 | 0.00 | 0.00 | 44 | 1016.8 |
| 20260901230104 | 93 | 189 | 0.0 | 4.0 | 0.00 | 0.00 | 0.00 | 44 | 1016.8 |
| 20260901225546 | 93 | 196 | 0.0 | 4.0 | 0.00 | 0.00 | 0.00 | 44 | 1016.7 |
| 20260901225043 | 93 | 200 | 1.0 | 4.0 | 0.00 | 0.00 | 0.00 | 43 | 1016.8 |
| 20260901224611 | 94 | 155 | 1.0 | 4.0 | 0.00 | 0.00 | 0.00 | 42 | 1016.8 |
| 20260901224045 | 94 | 250 | 1.0 | 3.0 | 0.00 | 0.00 | 0.00 | 42 | 1016.8 |
| 20260901223543 | 94 | 215 | 1.0 | 6.0 | 0.00 | 0.00 | 0.00 | 42 | 1016.8 |
| 20260901223105 | 94 | 196 | 2.0 | 6.0 | 0.00 | 0.00 | 0.00 | 41 | 1016.8 |
| 20260901222542 | 95 | 159 | 1.0 | 5.0 | 0.00 | 0.00 | 0.00 | 43 | 1016.8 |
| 20260901222042 | 95 | 151 | 0.0 | 6.0 | 0.00 | 0.00 | 0.00 | 42 | 1016.7 |
| 20260901221605 | 95 | 171 | 1.0 | 6.0 | 0.00 | 0.00 | 0.00 | 43 | 1016.8 |
| 20260901221043 | 96 | 80 | 2.0 | 6.0 | 0.00 | 0.00 | 0.00 | 39 | 1016.7 |
| 20260901220543 | 96 | 161 | 2.0 | 4.0 | 0.00 | 0.00 | 0.00 | 39 | 1016.7 |
| 20260901220107 | 97 | 153 | 1.0 | 4.0 | 0.00 | 0.00 | 0.00 | 39 | 1016.7 |
| 20260901215543 | 96 | 160 | 0.0 | 4.0 | 0.00 | 0.00 | 0.00 | 40 | 1016.7 |
| 20260901215043 | 96 | 193 | 1.0 | 6.0 | 0.00 | 0.00 | 0.00 | 40 | 1016.7 |
| 20260901214604 | 96 | 206 | 1.0 | 6.0 | 0.00 | 0.00 | 0.00 | 40 | 1016.8 |
| 20260901214043 | 96 | 179 | 1.0 | 6.0 | 0.00 | 0.00 | 0.00 | 41 | 1016.8 |
| 20260901213545 | 96 | 149 | 1.0 | 6.0 | 0.00 | 0.00 | 0.00 | 40 | 1016.8 |
| 20260901213121 | 96 | 247 | 0.0 | 4.0 | 0.00 | 0.00 | 0.00 | 41 | 1016.9 |
| 20260901212542 | 96 | 249 | 1.0 | 4.0 | 0.00 | 0.00 | 0.00 | 40 | 1017.0 |
| 20260901212043 | 95 | 182 | 2.0 | 3.0 | 0.00 | 0.00 | 0.00 | 42 | 1017.0 |
| 20260901211604 | 95 | 263 | 0.0 | 3.0 | 0.00 | 0.00 | 0.00 | 41 | 1017.1 |
| 20260901211044 | 95 | 270 | 1.0 | 2.0 | 0.00 | 0.00 | 0.00 | 41 | 1017.1 |
| 20260901210542 | 95 | 0 | 0.0 | 1.0 | 0.00 | 0.00 | 0.00 | 43 | 1017.2 |
| 20260901210119 | 94 | 0 | 0.0 | 3.0 | 0.00 | 0.00 | 0.00 | 43 | 1017.2 |
| 20260901205543 | 93 | 0 | 0.0 | 3.0 | 0.00 | 0.00 | 0.00 | 42 | 1017.4 |
| 20260901205042 | 93 | 0 | 2.0 | 3.0 | 0.00 | 0.00 | 0.00 | 42 | 1017.5 |
| 20260901204606 | 94 | 0 | 0.0 | 2.0 | 0.00 | 0.00 | 0.00 | 44 | 1017.5 |
| 20260901204051 | 95 | 202 | 0.0 | 2.0 | 0.00 | 0.00 | 0.00 | 41 | 1017.5 |
| 20260901203543 | 96 | 0 | 0.0 | 3.0 | 0.00 | 0.00 | 0.00 | 42 | 1017.5 |
| 20260901203102 | 97 | 195 | 1.0 | 7.0 | 0.00 | 0.00 | 0.00 | 40 | 1017.5 |
| 20260901202543 | 96 | 40 | 1.0 | 7.0 | 0.00 | 0.00 | 0.00 | 42 | 1017.5 |
| 20260901202043 | 96 | 128 | 2.0 | 7.0 | 0.00 | 0.00 | 0.00 | 43 | 1017.6 |
| 20260901201608 | 96 | 111 | 2.0 | 6.0 | 0.00 | 0.00 | 0.00 | 43 | 1017.6 |
| 20260901201043 | 97 | 198 | 1.0 | 6.0 | 0.00 | 0.00 | 0.00 | 42 | 1017.7 |
| 20260901200543 | 97 | 198 | 1.0 | 4.0 | 0.00 | 0.00 | 0.00 | 42 | 1017.7 |
| 20260901200116 | 96 | 90 | 1.0 | 4.0 | 0.00 | 0.00 | 0.00 | 40 | 1017.7 |
| 20260901195543 | 96 | 117 | 1.0 | 5.0 | 0.00 | 0.00 | 0.00 | 38 | 1017.8 |
| 20260901195043 | 96 | 141 | 2.0 | 6.0 | 0.00 | 0.00 | 0.00 | 41 | 1017.9 |
| 20260901194604 | 96 | 161 | 2.0 | 8.0 | 0.00 | 0.00 | 0.00 | 42 | 1017.9 |
| 20260901194043 | 97 | 180 | 2.0 | 8.0 | 0.00 | 0.00 | 0.00 | 43 | 1018.0 |
| 20260901193543 | 97 | 204 | 3.0 | 8.0 | 0.00 | 0.00 | 0.00 | 46 | 1018.0 |
| 20260901193111 | 96 | 211 | 2.0 | 7.0 | 0.00 | 0.00 | 0.00 | 48 | 1018.1 |
| 20260901192543 | 96 | 129 | 2.0 | 7.0 | 0.00 | 0.00 | 0.00 | 48 | 1018.1 |
| 20260901192043 | 96 | 212 | 2.0 | 6.0 | 0.00 | 0.00 | 0.00 | 48 | 1018.1 |
| 20260901191559 | 95 | 0 | 0.0 | 8.0 | 0.00 | 0.00 | 0.00 | 49 | 1018.2 |
| 20260901191047 | 95 | 89 | 3.0 | 8.0 | 0.00 | 0.00 | 0.00 | 48 | 1018.2 |
| 20260901190542 | 95 | 192 | 1.0 | 6.0 | 0.00 | 0.00 | 0.00 | 47 | 1018.2 |
| 20260901190059 | 94 | 222 | 1.0 | 6.0 | 0.00 | 0.00 | 0.00 | 49 | 1018.3 |
| 20260901185543 | 93 | 0 | 1.0 | 5.0 | 0.00 | 0.00 | 0.00 | 50 | 1018.4 |
| 20260901185043 | 92 | 0 | 1.0 | 5.0 | 0.00 | 0.00 | 0.00 | 50 | 1018.5 |
| 20260901184610 | 92 | 0 | 0.0 | 7.0 | 0.00 | 0.00 | 0.00 | 50 | 1018.5 |
| 20260901184043 | 93 | 298 | 3.0 | 8.0 | 0.00 | 0.00 | 0.00 | 48 | 1018.6 |
| 20260901183542 | 93 | 261 | 1.0 | 8.0 | 0.00 | 0.00 | 0.00 | 50 | 1018.7 |
| 20260901183109 | 92 | 251 | 1.0 | 7.0 | 0.00 | 0.00 | 0.00 | 51 | 1018.7 |
| 20260901182543 | 93 | 295 | 2.0 | 7.0 | 0.00 | 0.00 | 0.00 | 49 | 1018.7 |
| 20260901182044 | 93 | 259 | 2.0 | 6.0 | 0.00 | 0.00 | 0.00 | 49 | 1018.9 |
| 20260901181603 | 93 | 260 | 2.0 | 9.0 | 0.00 | 0.00 | 0.00 | 49 | 1018.9 |
| 20260901181043 | 93 | 172 | 2.0 | 9.0 | 0.00 | 0.00 | 0.00 | 51 | 1019.0 |
| 20260901180544 | 92 | 296 | 1.0 | 9.0 | 0.00 | 0.00 | 0.00 | 51 | 1019.0 |
| 20260901180059 | 92 | 254 | 3.0 | 9.0 | 0.00 | 0.00 | 0.00 | 50 | 1019.2 |
| 20260901175543 | 93 | 271 | 1.0 | 4.0 | 0.00 | 0.00 | 0.00 | 50 | 1019.2 |
| 20260901175042 | 92 | 142 | 0.0 | 5.0 | 0.00 | 0.00 | 0.00 | 52 | 1019.3 |
| 20260901174559 | 91 | 248 | 2.0 | 11.0 | 0.00 | 0.00 | 0.00 | 51 | 1019.4 |
| 20260901174043 | 91 | 272 | 4.0 | 11.0 | 0.00 | 0.00 | 0.00 | 53 | 1019.4 |
| 20260901173545 | 91 | 298 | 1.0 | 7.0 | 0.00 | 0.00 | 0.00 | 52 | 1019.5 |
| 20260901173106 | 91 | 269 | 1.0 | 8.0 | 0.00 | 0.00 | 0.00 | 53 | 1019.6 |
| 20260901172545 | 90 | 250 | 1.0 | 8.0 | 0.00 | 0.00 | 0.00 | 53 | 1019.7 |
| 20260901172043 | 90 | 288 | 3.0 | 12.0 | 0.00 | 0.00 | 0.00 | 54 | 1019.7 |
| 20260901171601 | 90 | 279 | 2.0 | 12.0 | 0.00 | 0.00 | 0.00 | 53 | 1019.8 |
| 20260901171042 | 90 | 267 | 5.0 | 12.0 | 0.00 | 0.00 | 0.00 | 53 | 1019.8 |
| 20260901170543 | 91 | 191 | 1.0 | 5.0 | 0.00 | 0.00 | 0.00 | 52 | 1019.8 |
| 20260901170057 | 91 | 219 | 2.0 | 7.0 | 0.00 | 0.00 | 0.00 | 55 | 1019.9 |
| 20260901165543 | 91 | 225 | 2.0 | 7.0 | 0.00 | 0.00 | 0.00 | 53 | 1020.0 |
| 20260901165043 | 91 | 274 | 1.0 | 5.0 | 0.00 | 0.00 | 0.00 | 56 | 1019.9 |
| 20260901164607 | 91 | 165 | 2.0 | 5.0 | 0.00 | 0.00 | 0.00 | 56 | 1020.0 |
| 20260901164044 | 90 | 190 | 2.0 | 6.0 | 0.00 | 0.00 | 0.00 | 56 | 1020.0 |
| 20260901163543 | 90 | 238 | 2.0 | 6.0 | 0.00 | 0.00 | 0.00 | 58 | 1020.1 |
| 20260901163115 | 90 | 190 | 1.0 | 6.0 | 0.00 | 0.00 | 0.00 | 57 | 1020.1 |
| 20260901162544 | 90 | 198 | 1.0 | 7.0 | 0.00 | 0.00 | 0.00 | 58 | 1020.1 |
| 20260901162044 | 90 | 218 | 1.0 | 7.0 | 0.00 | 0.00 | 0.00 | 57 | 1020.1 |
| 20260901161625 | 90 | 137 | 3.0 | 7.0 | 0.00 | 0.00 | 0.00 | 57 | 1020.2 |
| 20260901161045 | 90 | 125 | 2.0 | 5.0 | 0.00 | 0.00 | 0.00 | 57 | 1020.2 |
| 20260901160546 | 89 | 216 | 2.0 | 7.0 | 0.00 | 0.00 | 0.00 | 58 | 1020.2 |
| 20260901160105 | 89 | 222 | 2.0 | 7.0 | 0.00 | 0.00 | 0.00 | 60 | 1020.1 |
| 20260901155542 | 88 | 183 | 2.0 | 6.0 | 0.00 | 0.00 | 0.00 | 60 | 1020.0 |